User: anonymous
Location: Unspecified
(0.0000°N, 0.0000°E)
Time: 05:53:56
(UTC+00:00)
Language:

Aussat K2 - Orbit

View from above orbital plane
View from above orbital plane
View from above satellite
View from above satellite

Ground track
Ground track

The orbit data is extracted from the following two-line orbital elements,

1 16275U 85109C   14233.24936147 -.00000296  00000-0  00000+0 0  4951
2 16275 014.6809 019.7950 0005800 159.1727 028.9338 00.99955350 94929
Epoch (UTC): 21 August 2014 05:59:04
Eccentricity: 0.0005800
inclination: 14.6809°
perigee height: 35850 km
apogee height: 35899 km
right ascension of ascending node: 19.7950°
argument of perigee: 159.1727°
revolutions per day: 0.99955350
mean anomaly at epoch: 28.9338°
orbit number at epoch: 9492

The dashed part of the orbit path shows where the satellite is in the earth's shadow,  

DLR